User: anonymous   Login
Location: Boca do Mato
(22.9085°S, 43.2930°W)
Time: 04:21:32
(UTC+00:00)
Language:

Cosmos 1707 - Orbit

View from above orbital plane
View from above orbital plane
View from above satellite
View from above satellite

Ground track
Ground track

The orbit data is extracted from the following two-line orbital elements,

1 16326U 85113A   20266.61488261 +.00000121 +00000-0 +48194-5 0  9993
2 16326 082.5082 114.8952 0011576 131.0170 229.2064 15.14334354897628
Epoch (UTC): 22 September 2020 14:45:25
Eccentricity: 0.0011576
inclination: 82.5082°
perigee height: 515 km
apogee height: 531 km
right ascension of ascending node: 114.8952°
argument of perigee: 131.0170°
revolutions per day: 15.14334354
mean anomaly at epoch: 229.2064°
orbit number at epoch: 89762

The dashed part of the orbit path shows where the satellite is in the earth's shadow,  

DLR